TimeCST,TemperatureF,Dew PointF,Humidity,Sea Level PressureIn,VisibilityMPH,Wind Direction,Wind SpeedMPH,Gust SpeedMPH,PrecipitationIn,Events,Conditions,WindDirDegrees,DateUTC
12:03 AM,32.0,30.2,93,30.47,5.0,Calm,Calm,-,N/A,Fog,Shallow Fog,0,2012-11-17 06:03:00
12:52 AM,28.0,28.0,100,30.50,5.0,Calm,Calm,-,N/A,Fog,Shallow Fog,0,2012-11-17 06:52:00
1:14 AM,28.4,26.6,93,30.48,2.5,Calm,Calm,-,N/A,Fog,Shallow Fog,0,2012-11-17 07:14:00
1:21 AM,28.4,26.6,93,30.48,4.0,Calm,Calm,-,N/A,Fog,Shallow Fog,0,2012-11-17 07:21:00
1:52 AM,27.0,26.1,96,30.51,3.0,Calm,Calm,-,N/A,Fog,Shallow Fog,0,2012-11-17 07:52:00
2:52 AM,27.0,25.0,92,30.51,3.0,Calm,Calm,-,N/A,,Clear,0,2012-11-17 08:52:00
3:04 AM,26.6,26.6,100,30.49,1.8,Calm,Calm,-,N/A,,Clear,0,2012-11-17 09:04:00
3:16 AM,24.8,24.8,100,30.49,2.0,Calm,Calm,-,N/A,,Clear,0,2012-11-17 09:16:00
3:21 AM,26.6,24.8,93,30.49,0.8,Calm,Calm,-,N/A,,Clear,0,2012-11-17 09:21:00
3:31 AM,26.6,24.8,93,30.49,2.0,Calm,Calm,-,N/A,,Clear,0,2012-11-17 09:31:00
3:52 AM,26.1,24.1,92,30.52,4.0,Calm,Calm,-,N/A,,Clear,0,2012-11-17 09:52:00
4:39 AM,26.6,24.8,93,30.50,2.5,Calm,Calm,-,N/A,,Clear,0,2012-11-17 10:39:00
4:52 AM,26.1,25.0,96,30.53,3.0,Calm,Calm,-,N/A,,Clear,0,2012-11-17 10:52:00
5:52 AM,25.0,23.0,92,30.53,7.0,Calm,Calm,-,N/A,,Clear,0,2012-11-17 11:52:00
6:52 AM,25.0,23.0,92,30.55,3.0,Calm,Calm,-,N/A,,Clear,0,2012-11-17 12:52:00
7:52 AM,28.9,27.0,92,30.56,4.0,Calm,Calm,-,N/A,,Clear,0,2012-11-17 13:52:00
8:52 AM,37.0,32.0,82,30.56,7.0,Calm,Calm,-,N/A,,Clear,0,2012-11-17 14:52:00
9:52 AM,44.1,33.1,65,30.56,7.0,South,6.9,-,N/A,,Clear,170,2012-11-17 15:52:00
10:52 AM,48.0,33.1,56,30.54,7.0,SSE,8.1,-,N/A,,Clear,160,2012-11-17 16:52:00
11:52 AM,50.0,33.1,52,30.51,7.0,South,9.2,-,N/A,,Clear,180,2012-11-17 17:52:00
12:52 PM,51.1,30.9,46,30.50,7.0,SSE,8.1,-,N/A,,Clear,150,2012-11-17 18:52:00
1:52 PM,53.1,30.9,43,30.48,8.0,South,6.9,-,N/A,,Clear,180,2012-11-17 19:52:00
2:52 PM,51.1,30.9,46,30.48,9.0,South,4.6,-,N/A,,Clear,190,2012-11-17 20:52:00
3:52 PM,48.9,32.0,52,30.48,8.0,South,4.6,-,N/A,,Clear,180,2012-11-17 21:52:00
4:52 PM,44.1,30.0,58,30.48,8.0,SSE,3.5,-,N/A,,Clear,150,2012-11-17 22:52:00
5:52 PM,39.0,30.0,70,30.47,8.0,SE,6.9,-,N/A,,Clear,140,2012-11-17 23:52:00
6:52 PM,42.1,30.0,62,30.46,8.0,SE,6.9,-,N/A,,Clear,140,2012-11-18 00:52:00
7:52 PM,42.1,32.0,67,30.46,7.0,SE,5.8,-,N/A,,Clear,140,2012-11-18 01:52:00
8:52 PM,36.0,30.0,79,30.48,7.0,Calm,Calm,-,N/A,,Clear,0,2012-11-18 02:52:00
9:52 PM,32.0,27.0,82,30.47,6.0,Calm,Calm,-,N/A,,Haze,0,2012-11-18 03:52:00
10:52 PM,33.1,28.9,85,30.47,6.0,ESE,3.5,-,N/A,,Clear,120,2012-11-18 04:52:00
11:52 PM,32.0,28.9,88,30.46,6.0,Calm,Calm,-,N/A,,Clear,0,2012-11-18 05:52:00